Regional Weather Roundup
Issued by NWS Newport/Morehead, NC

Current Version | Previous Version | Graphics & Text | Print | Product List | Glossary On
Versions: 1 2 3 4 5 6 7 8 9 10 11 12 13 14 15 16 17 18 19 20 21 22 23 24 25 26 27 28 29 30 31 32 33 34 35 36 37 38 39 40 41 42 43 44 45 46 47 48 49 50
583 ASUS42 KMHX 042013 RWRMHX WEATHER ROUNDUP FOR EASTERN NORTH CAROLINA NATIONAL WEATHER SERVICE NEWPORT/MOREHEAD CITY NC 400 PM EDT WED MAY 04 2016 NOTE: "FAIR" INDICATES FEW OR NO CLOUDS BELOW 12,000 FEET WITH NO SIGNIFICANT WEATHER AND/OR OBSTRUCTIONS TO VISIBILITY NCZ015>017-031-032-045>047-102-103-042100- NORTH COAST CITY SKY/WX TMP DP RH WIND PRES REMARKS EDENTON CLOUDY 71 64 78 NW3 29.60F ELIZABETH CITY PTSUNNY 72 61 68 NW8 29.59F KITTY HAWK CLEAR 70 58 67 NE6 29.59F MANTEO CLOUDY 67 64 88 NE8 29.60F $$ NCZ045>047-081-094-103-104-042100- CENTRAL COAST CITY SKY/WX TMP DP RH WIND PRES REMARKS FRISCO MOSUNNY 72 65 78 SW8 29.59F SWANQUARTER NOT AVBL $$ NCZ095-097-098-100-101-042100- SOUTHERN COAST CITY SKY/WX TMP DP RH WIND PRES REMARKS BEAUFORT SUNNY 73 68 84 S12 29.56F CEDAR ISLAND NOT AVBL JACKSONVILLE PTSUNNY 76 60 57 NW8 29.55F PINEY ISLAND PTCLDY N/A N/A N/A N13 29.56F WILMINGTON PTSUNNY 80 60 50 W17 29.56F $$ NCZ011>013-027>030-043-044-078>080-089-090>093-098-042100- COASTAL PLAIN CITY SKY/WX TMP DP RH WIND PRES REMARKS AHOSKIE MOSUNNY 68 59 72 CALM 29.60F CLINTON SUNNY 76 55 48 W6 29.59F ELIZABETHTOWN CLOUDY 77 54 44 NW7 29.58F GOLDSBORO MOSUNNY 74 61 63 NW7 29.57F GREENVILLE MOSUNNY 73 61 64 W3 29.62F HAVELOCK CLOUDY 67 64 90 S7 29.57F THUNDER FOG KENANSVILLE NOT AVBL KINSTON MOSUNNY 75 59 57 NW6 29.58F NEW BERN SUNNY 78 61 55 NW12 29.57F RICHLANDS PTSUNNY 78 62 57 VRB5 29.56F ROCKY MOUNT PTSUNNY 73 54 51 SW7 29.59F WASHINGTON MOSUNNY 76 60 59 W9 29.57F WHITEVILLE NOT AVBL $$ AMZ130-135-150-152-154-156-158-170-250-252-270-ANZ085-086-088-633-658-670-042100- MARINE OBSERVATIONS STATION/POSITION TIME TEMP WIND PRES WAVE SWELL AIR SEA DIR/SP/G HT/PER HT/PER (UTC) (F) (DEG/KT/KT) (MB) (FT/S) (FT/S) CHESAPEAKE LIGHT 2000 54 20/ 10/ 10 1003.8 64 E VA BEACH 1950 55 56 360/ 8/ 10 1002.4 3/ 7 3/ 7 DUCK 1900 58 10/ 9/ 10 1002.0 2 E DUCK 1911 60 N/A 3/ 5 OREGON INLET 1900 63 63 10/ 6/ 10 1002.3 13E OREGON INLT 2000 64 N/A 3/ 9 3/ 9 HATTERAS CG 1900 71 69 240/ 6/ 10 1002.0 DIAMOND BUOY 1950 70 71 230/ 8/ 10 1001.9 3/ 8 3/ 8 CAPE LOOKOUT 2000 69 170/ 10/ 11 1000.8 BEAUFORT LAB 1900 70 68 180/ 9/ 10 1001.2 30 SE NEW RVR IN 1925 73 N/A 5/ 7 27 SE WRIGHTSVLE 1908 72 72 230/ 14/ 17 1001.9 5 SE WRIGHTSVLE 1908 72 70 210/ 16/ 21 1002.2 225 S CAPE HAT 1950 74 74 160/ 14/ 17 1004.8 5/ 7 41 SE CHARLESTON 1950 73 75 240/ 14/ 17 1003.1 3/ 6 2/ 9 $$

USA.gov is the U.S. government's official web portal to all federal, state and local government web resources and services.